[[{"header":{"parameterUnit":"m.s-1","parameterCategory":1,"la1":30.2991,"la2":30.254,"lo1":-89.0895,"lo2":-89.0444,"dy":0.0017,"dx":0.0017,"nx":28,"ny":28,"refTime":"2025-12-22T03:00:00:Z","depth":0,"parameterNumber":2,"parameterNumberName":"U-component_of_WINDS"},"data":[0,0,0,0,0,0,0,0,0,0,0,0,0,0,0,0,0,0,0,0,0,0,0,0,0,0,0,0,0,0,0,0,0,0,0,0,0,0,0,0,0,0,0,0,0,0,0,0,0,0,0,0,0,0,0,0,0,0,-2.4853,-2.4855,0,-2.5005,-2.5007,-2.5008,-2.5059,-2.5059,-2.5058,-2.5058,-2.5211,-2.5215,-2.522,0,0,0,0,0,0,0,0,0,0,0,0,0,-2.4604,-2.4609,-2.4853,-2.4855,-2.4857,-2.5005,-2.5007,-2.5009,-2.506,-2.5059,-2.5058,-2.5057,-2.5209,-2.5215,-2.522,0,0,0,0,0,0,0,0,0,0,0,0,0,-2.473,-2.461,-2.4853,-2.49,-2.4906,-2.5004,-2.5007,-2.5009,-2.506,-2.5059,-2.5058,-2.5057,-2.5207,-2.5214,-2.5221,-2.5283,0,0,-2.5242,-2.5245,0,0,0,0,0,0,0,0,-2.4723,-2.4739,-2.4891,-2.4897,-2.4903,-2.5012,-2.4975,-2.5101,-2.506,-2.5001,-2.5058,-2.5056,-2.5145,-2.5157,-2.5188,-2.529,-2.5297,-2.5243,-2.5247,-2.525,-2.5252,0,0,0,0,0,0,0,-2.4714,-2.4733,-2.4913,-2.4893,-2.4901,-2.4913,-2.493,-2.4999,-2.5076,-2.5006,-2.501,-2.5028,-2.5148,-2.5181,-2.5192,-2.5299,-2.5243,-2.5249,-2.5253,-2.5256,-2.546,-2.5461,0,0,0,0,0,0,-2.4697,-2.4725,-2.4908,-2.4918,-2.4809,-2.4918,-2.4937,-2.4978,-2.5076,-2.509,-2.5028,-2.5029,-2.5169,-2.5184,-2.5197,-2.5276,-2.525,-2.5257,-2.5261,-2.5458,-2.546,-2.5461,0,0,0,0,0,0,-2.4692,-2.4713,-2.4902,-2.4823,-2.4847,-2.4923,-2.4969,-2.4982,-2.5014,-2.5093,-2.5106,-2.5047,-2.5169,-2.5188,-2.5261,-2.5282,-2.526,-2.5266,-2.5457,-2.5459,-2.546,-2.5434,0,0,0,0,0,0,-2.4685,-2.4711,-2.4736,-2.4823,-2.4852,-2.4964,-2.4971,-2.4985,-2.5027,-2.503,-2.5114,-2.5127,-2.517,-2.5251,-2.5268,-2.5291,-2.5272,-2.5455,-2.5458,-2.546,-2.5433,-2.5434,-2.5435,0,0,0,0,0,-2.4676,-2.4722,-2.4737,-2.4759,-2.4884,-2.4965,-2.4982,-2.503,-2.5028,-2.5053,-2.5104,-2.5125,-2.5277,-2.5258,-2.5278,-2.5303,-2.5454,-2.5457,-2.546,-2.5432,-2.5434,-2.5435,0,0,0,0,0,0,-2.4634,-2.4734,-2.4752,-2.4828,-2.4888,-2.4974,-2.5007,-2.503,-2.5092,-2.5092,-2.5149,-2.5168,-2.5237,-2.5278,-2.5255,-2.5368,-2.5367,-2.5374,-2.5339,-2.5341,-2.5342,-2.533,-2.5277,0,0,0,0,0,-2.4634,-2.4692,-2.4776,-2.4835,-2.4864,-2.493,-2.4967,-2.5,-2.5064,-2.5089,-2.5145,-2.5206,-2.5268,-2.5307,-2.5368,-2.544,-2.5458,-2.5467,-2.5468,-2.5469,-2.5474,-2.5514,-2.5519,-2.547,-2.547,-2.547,0,0,-2.4634,-2.4696,-2.4729,-2.4828,-2.4878,-2.4936,-2.4951,-2.5012,-2.5056,-2.5098,-2.5172,-2.5215,-2.5286,-2.5359,-2.5394,-2.5395,-2.5492,-2.5472,-2.5472,-2.5477,-2.5517,-2.5522,-2.5526,-2.5472,-2.5472,-2.5471,0,0,-2.4663,-2.4716,-2.4771,-2.4821,-2.4898,-2.4942,-2.4954,-2.5038,-2.5068,-2.5143,-2.5176,-2.5228,-2.5333,-2.5383,-2.5422,-2.5471,-2.5492,-2.5489,-2.5495,-2.5534,-2.5538,-2.5541,-2.5558,-2.5564,-2.5494,-2.5494,-2.5494,0,-2.4653,-2.4743,-2.4796,-2.4855,-2.4897,-2.494,-2.4995,-2.5041,-2.5133,-2.5161,-2.5162,-2.5295,-2.5346,-2.5431,-2.5443,-2.5474,-2.549,-2.5479,-2.5533,-2.5537,-2.5542,-2.5558,-2.5564,-2.5493,-2.5493,-2.5493,-2.5494,0,-2.4726,-2.4788,-2.4823,-2.4912,-2.4958,-2.5015,-2.5076,-2.5116,-2.5145,-2.5188,-2.5264,-2.5327,-2.5402,-2.5425,-2.5453,-2.5514,-2.5512,-2.5522,-2.5521,-2.5544,-2.5561,-2.5568,-2.5492,-2.5492,-2.5492,-2.5493,0,0,-2.4733,-2.4851,-2.4862,-2.4903,-2.4991,-2.5039,-2.5098,-2.5172,-2.5205,-2.5268,-2.5318,-2.5406,-2.5416,-2.546,-2.5495,-2.5529,-2.5563,-2.5535,-2.5538,-2.5537,-2.5633,-2.5624,-2.5631,-2.5579,-2.558,-2.5581,-2.5627,0,-2.4773,-2.488,-2.493,-2.5015,-2.5072,-2.5114,-2.5165,-2.5224,-2.5266,-2.5321,-2.5368,-2.5429,-2.5438,-2.5465,-2.5501,-2.5551,-2.5583,-2.5549,-2.5625,-2.5627,-2.5604,-2.564,-2.563,-2.567,-2.5634,-2.5635,-2.5636,0,-2.4834,-2.4897,-2.4988,-2.5069,-2.5095,-2.514,-2.5211,-2.5263,-2.5331,-2.5359,-2.5409,-2.5442,-2.5505,-2.5501,-2.5588,-2.5564,-2.5598,-2.5627,-2.563,-2.5638,-2.5632,-2.5647,-2.5684,-2.569,-2.5647,-2.5646,-2.5645,0,-2.4828,-2.4936,-2.5004,-2.5038,-2.5134,-2.5165,-2.5206,-2.5273,-2.5314,-2.5377,-2.5404,-2.5473,-2.551,-2.5563,-2.5613,-2.5606,-2.5695,-2.5695,-2.572,-2.5718,-2.5736,-2.5734,-2.5777,-2.5759,-2.5759,-2.5759,-2.5759,0,-2.4867,-2.4921,-2.5003,-2.5045,-2.5106,-2.5162,-2.5221,-2.5266,-2.5325,-2.5376,-2.5416,-2.5463,-2.5528,-2.5582,-2.5623,-2.5688,-2.5705,-2.5729,-2.5739,-2.5725,-2.5722,-2.5747,-2.5745,-2.5761,-2.5761,-2.576,-2.576,0,-2.4871,-2.4928,-2.5005,-2.509,-2.5113,-2.5154,-2.5227,-2.5269,-2.5314,-2.5378,-2.5396,-2.5466,-2.5532,-2.5589,-2.5676,-2.5703,-2.5771,-2.5783,-2.5748,-2.5753,-2.5774,-2.5771,-2.5835,-2.5846,-2.5821,-2.5821,-2.5821,0,-2.4891,-2.4934,-2.5024,-2.5061,-2.5102,-2.5161,-2.5204,-2.5261,-2.5303,-2.5384,-2.5416,-2.5486,-2.5544,-2.5649,-2.5707,-2.5774,-2.5788,-2.5806,-2.5798,-2.5783,-2.5787,-2.5783,-2.5788,-2.5805,-2.5805,-2.5805,-2.5805,0,-2.4921,-2.4948,-2.5007,-2.5077,-2.5127,-2.5185,-2.5244,-2.5272,-2.5339,-2.5385,-2.5454,-2.55,-2.5589,-2.5658,-2.5731,-2.5774,-2.5801,-2.5808,-2.5817,-2.5802,-2.578,-2.5791,-2.5748,-2.5806,-2.5806,-2.5806,-2.5806,-2.5806,-2.4934,-2.4973,-2.5042,-2.5108,-2.5158,-2.5212,-2.5256,-2.5306,-2.5365,-2.5443,-2.5473,-2.5543,-2.561,-2.5712,-2.5754,-2.581,-2.5814,-2.5827,-2.583,-2.5832,-2.583,-2.5772,-2.5824,-2.5824,-2.5824,-2.5824,-2.5824,0,-2.4965,-2.5012,-2.5071,-2.5152,-2.5204,-2.5226,-2.5292,-2.5333,-2.5395,-2.5455,-2.5512,-2.5592,-2.5658,-2.5722,-2.5792,-2.5824,-2.5839,-2.5841,-2.5838,-2.5848,-2.5823,-2.5808,-2.5828,-2.5828,-2.5828,-2.5828,-2.5828,-2.5828,-2.4987,-2.5055,-2.5089,-2.5182,-2.5229,-2.5298,-2.5334,-2.5384,-2.5433,-2.5519,-2.5575,-2.5617,-2.5679,-2.5754,-2.5816,-2.5833,-2.5856,-2.5855,-2.5875,-2.5851,-2.5849,-2.5848,-2.5834,-2.586,-2.586,-2.5896,-2.5896,-2.5896]},{"header":{"parameterUnit":"m.s-1","parameterCategory":1,"la1":30.2991,"la2":30.254,"lo1":-89.0895,"lo2":-89.0444,"dy":0.0017,"dx":0.0017,"nx":28,"ny":28,"refTime":"2025-12-22T03:00:00:Z","depth":0,"parameterNumber":3,"parameterNumberName":"V-component_of_WINDS"},"data":[0,0,0,0,0,0,0,0,0,0,0,0,0,0,0,0,0,0,0,0,0,0,0,0,0,0,0,0,0,0,0,0,0,0,0,0,0,0,0,0,0,0,0,0,0,0,0,0,0,0,0,0,0,0,0,0,0,0,2.7551,2.7551,0,2.7526,2.7525,2.7525,2.7473,2.7472,2.7471,2.747,2.7443,2.7444,2.7444,0,0,0,0,0,0,0,0,0,0,0,0,0,2.7557,2.7557,2.7552,2.7551,2.7551,2.7526,2.7525,2.7525,2.7473,2.7472,2.747,2.7469,2.7443,2.7444,2.7444,0,0,0,0,0,0,0,0,0,0,0,0,0,2.7545,2.7557,2.7552,2.7522,2.7519,2.7526,2.7525,2.7525,2.7473,2.7472,2.747,2.7469,2.7443,2.7444,2.7444,2.7478,0,0,2.7445,2.7445,0,0,0,0,0,0,0,0,2.7546,2.7545,2.7527,2.7524,2.7521,2.7501,2.7518,2.7509,2.7474,2.7491,2.747,2.7468,2.7464,2.7462,2.7461,2.7477,2.7475,2.7445,2.7445,2.7446,2.7446,0,0,0,0,0,0,0,2.7547,2.7546,2.7541,2.7526,2.7523,2.751,2.7507,2.7516,2.7486,2.7489,2.7485,2.7483,2.7462,2.7461,2.746,2.7475,2.7445,2.7446,2.7446,2.7446,2.7517,2.7519,0,0,0,0,0,0,2.7552,2.7547,2.7542,2.754,2.753,2.7511,2.7508,2.7509,2.7486,2.7481,2.7484,2.748,2.7461,2.746,2.7459,2.7496,2.7446,2.7446,2.7446,2.7516,2.7518,2.752,0,0,0,0,0,0,2.7552,2.7552,2.7543,2.7543,2.7541,2.7513,2.7515,2.7509,2.7508,2.7482,2.7477,2.7488,2.7459,2.7458,2.7473,2.7495,2.7446,2.7447,2.7514,2.7516,2.7519,2.7572,0,0,0,0,0,0,2.7553,2.7552,2.7564,2.7543,2.7541,2.7558,2.7516,2.751,2.7509,2.7503,2.7485,2.748,2.7458,2.7473,2.7474,2.7494,2.7447,2.7512,2.7515,2.7518,2.7568,2.7576,2.7583,0,0,0,0,0,2.7553,2.758,2.7565,2.7565,2.7555,2.7559,2.7558,2.7532,2.7511,2.7523,2.7507,2.7481,2.7493,2.7475,2.7476,2.7496,2.751,2.7514,2.7518,2.7565,2.7574,2.7583,0,0,0,0,0,0,2.7604,2.7577,2.756,2.7581,2.7573,2.755,2.7564,2.7543,2.754,2.7536,2.7504,2.75,2.752,2.751,2.7491,2.7528,2.7498,2.7502,2.7533,2.7542,2.7549,2.755,2.7447,0,0,0,0,0,2.7618,2.7623,2.76,2.7621,2.7618,2.7592,2.7593,2.7574,2.7564,2.756,2.7545,2.7537,2.7538,2.754,2.7541,2.7568,2.7562,2.7582,2.759,2.7596,2.7599,2.7612,2.7621,2.7532,2.7532,2.7532,0,0,2.7647,2.7633,2.7638,2.7631,2.7622,2.7628,2.7589,2.7598,2.7602,2.7561,2.7574,2.7564,2.7552,2.7573,2.7582,2.7566,2.7623,2.7601,2.7606,2.7605,2.7617,2.7625,2.7633,2.7534,2.7534,2.7534,0,0,2.7701,2.7692,2.7708,2.77,2.7688,2.7671,2.7676,2.7657,2.7648,2.7661,2.763,2.7636,2.764,2.7633,2.763,2.7685,2.766,2.7686,2.7723,2.7736,2.7743,2.7749,2.7768,2.7775,2.7689,2.769,2.769,0,2.7738,2.7746,2.7719,2.7729,2.7727,2.7692,2.7708,2.7703,2.7691,2.7691,2.7673,2.7678,2.7668,2.7687,2.77,2.77,2.7703,2.7686,2.7744,2.775,2.7755,2.7772,2.778,2.7693,2.7692,2.7692,2.7692,0,2.7791,2.7798,2.7813,2.7802,2.7802,2.7816,2.7792,2.7795,2.7777,2.7762,2.7776,2.7764,2.7761,2.7764,2.7747,2.7781,2.7772,2.775,2.7718,2.7767,2.7783,2.7789,2.7697,2.7696,2.7695,2.7694,0,0,2.7874,2.7851,2.7857,2.7852,2.7837,2.7841,2.7854,2.7851,2.7854,2.7849,2.7858,2.7863,2.7843,2.784,2.7822,2.7834,2.7877,2.7811,2.781,2.7822,2.7914,2.7929,2.7937,2.7863,2.7864,2.7865,2.7914,0,2.7924,2.7943,2.7921,2.7945,2.795,2.7918,2.7929,2.7921,2.7909,2.7912,2.7898,2.7902,2.7876,2.7874,2.7884,2.787,2.7895,2.7866,2.787,2.7871,2.7872,2.7945,2.7961,2.8008,2.792,2.7921,2.7922,0,2.7984,2.7981,2.8005,2.7989,2.7991,2.8001,2.7997,2.8001,2.7992,2.7982,2.798,2.7958,2.797,2.7941,2.7956,2.7937,2.7938,2.7932,2.7933,2.793,2.7898,2.7943,2.8023,2.8029,2.7932,2.7931,2.793,0,2.804,2.8043,2.8058,2.8055,2.8037,2.8045,2.8038,2.8028,2.8028,2.8025,2.8025,2.8024,2.8023,2.8023,2.8002,2.7983,2.802,2.7989,2.8011,2.8012,2.8018,2.8018,2.8097,2.8023,2.8023,2.8022,2.8022,0,2.8097,2.8113,2.8083,2.8092,2.8109,2.8084,2.8102,2.8092,2.8084,2.809,2.8063,2.807,2.8043,2.8048,2.8032,2.8047,2.8047,2.8039,2.8034,2.804,2.8041,2.8038,2.8034,2.8024,2.8024,2.8024,2.8023,0,2.8161,2.8142,2.8156,2.8139,2.8135,2.8149,2.8134,2.8142,2.8128,2.8137,2.8138,2.8117,2.8121,2.8101,2.8101,2.809,2.8113,2.8103,2.8116,2.8112,2.8135,2.8132,2.8214,2.8223,2.8144,2.8145,2.8146,0,2.8198,2.8209,2.8193,2.8196,2.819,2.8195,2.8195,2.8172,2.8174,2.8165,2.8174,2.8176,2.8176,2.8184,2.8169,2.8169,2.8159,2.8187,2.8158,2.8164,2.8157,2.8156,2.8157,2.8192,2.8193,2.8194,2.8195,0,2.8263,2.8254,2.8255,2.8254,2.8255,2.8253,2.8249,2.8253,2.8228,2.8231,2.8235,2.8235,2.8236,2.8238,2.8235,2.8228,2.8208,2.8205,2.821,2.8215,2.8221,2.8217,2.813,2.8202,2.8201,2.8201,2.8201,2.82,2.8314,2.8323,2.8313,2.8316,2.8311,2.8308,2.8314,2.8303,2.8305,2.8304,2.8291,2.8297,2.8289,2.8284,2.8279,2.8284,2.827,2.8278,2.8279,2.8281,2.8284,2.8222,2.8284,2.8284,2.8283,2.8283,2.8283,0,2.8377,2.837,2.8373,2.8368,2.8371,2.8352,2.8347,2.835,2.8356,2.8351,2.8352,2.8356,2.8359,2.8345,2.8345,2.8352,2.8342,2.8353,2.8351,2.835,2.8297,2.8292,2.836,2.836,2.836,2.836,2.836,2.836,2.841,2.8424,2.8414,2.8425,2.8418,2.8424,2.8422,2.842,2.8415,2.8422,2.8424,2.8415,2.8406,2.8406,2.8408,2.8404,2.8404,2.8418,2.841,2.8361,2.8353,2.8346,2.8341,2.8419,2.8419,2.8462,2.8463,2.8463]}]]